Mason County (3I2)

 

Airport Diagram
No Airport Diagram Available
Current Weather/Forecast (MVFR Conditions)
METAR K3I2 071255Z AUTO 25003KT 7SM -RA BKN013 BKN020 OVC027 09/09 A2997 RMK AO2 T00910091
TAF

Airport Information

All Charts
General
Chart Name View
TAKEOFF MINIMUMS
ALTERNATE MINIMUMS

Approaches
Chart Name Download
RNAV (GPS) RWY 07
RNAV (GPS) RWY 25


Airport Statistics
Departures Arrivals Local
All Collected Stats since June 2016: 3 2 0
2021 Stats: 0 0 0
May Stats: 0 0 0

Inbound Traffic (Arrivals) - 0

No inbound traffic.


Outbound Traffic (Departures) - 0

No outbound traffic.


Local Traffic (Pattern) - 0

No local traffic.